Gage, OK

6:48 AM CDT on July 25, 2017 (GMT -0500)
Gage

Weather History for KGAG - July, 2013

Change the Weather History Date:

Sunday, July 14, 2013

  Actual Average Record
Temperature  
Mean Temperature 73 °F -  
Max Temperature 82 °F 94 °F 110 °F (1954)
Min Temperature 63 °F 67 °F 47 °F (1990)
Cooling Degree Days 8    
Growing Degree Days 23 (Base 50)    
Moisture  
Dew Point 62 °F    
Average Humidity 71    
Maximum Humidity 100    
Minimum Humidity 48    
Precipitation  
Precipitation 0.06 in - - ()
Sea Level Pressure  
Sea Level Pressure 29.94 in    
Wind  
Wind Speed 16 mph (SSE)    
Max Wind Speed 32 mph    
Max Gust Speed 41 mph    
Visibility 9 miles    
Events Rain    
Averages and records for this station are not official NWS values.
T = Trace of Precipitation, MM = Missing Value Source: NWS Daily Summary

Daily Weather History Graph

Daily Weather History Graph

Search for Another Location

Airport or City:

Trip Planner

Search our weather history database for the weather conditions in past years. The results will help you decide how hot, cold, wet, or windy it might be!

Date:

Astronomy

Jul. 14, 2013 Rise Set
Actual Time 6:32 AM CDT 8:57 PM CDT
Civil Twilight 6:03 AM CDT 9:26 PM CDT
Nautical Twilight 5:26 AM CDT 10:03 PM CDT
Astronomical Twilight 4:46 AM CDT 10:43 PM CDT
Moon 12:38 PM CDT (7/14) No Moon Set
Length of Visible Light 15h 23m
Length of Day
14h 24m
Waxing Crescent, 35% of the Moon is Illuminated
Jul 14
Waxing Crescent
Jul 15
First Quarter
Jul 22
Full
Jul 29
Last Quarter
Aug 6
New

Hourly Weather History & Observations

Time (CDT) Temp. Heat Index Dew Point Humidity Pressure Visibility Wind Dir Wind Speed Gust Speed Precip Events Conditions
12:53 AM 82.9 °F 84.4 °F 64.0 °F 53% 29.84 in 10.0 mi South 19.6 mph 25.3 mph N/A   Clear
1:53 AM 81.0 °F 82.2 °F 63.0 °F 54% 29.83 in 10.0 mi South 17.3 mph - N/A   Clear
2:53 AM 80.1 °F 81.5 °F 63.0 °F 56% 29.83 in 10.0 mi South 13.8 mph - N/A   Clear
3:53 AM 79.0 °F - 62.1 °F 56% 29.82 in 10.0 mi South 15.0 mph - N/A   Clear
4:53 AM 77.0 °F - 62.1 °F 60% 29.81 in 10.0 mi South 15.0 mph - N/A   Clear
5:53 AM 77.0 °F - 62.1 °F 60% 29.80 in 10.0 mi South 18.4 mph 25.3 mph N/A   Clear
6:53 AM 75.0 °F - 62.1 °F 64% 29.81 in 10.0 mi SSE 18.4 mph 25.3 mph N/A   Clear
7:53 AM 75.9 °F - 61.0 °F 60% 29.90 in 10.0 mi East 18.4 mph 27.6 mph N/A   Clear
8:53 AM 78.1 °F - 57.0 °F 48% 29.90 in 10.0 mi SSE 28.8 mph 39.1 mph N/A   Clear
9:53 AM 77.0 °F - 55.9 °F 48% 29.91 in 10.0 mi SSE 32.2 mph 41.4 mph N/A   Clear
10:53 AM 79.0 °F - 60.1 °F 52% 29.90 in 10.0 mi SSE 29.9 mph 39.1 mph N/A   Clear
11:53 AM 80.1 °F 80.7 °F 59.0 °F 48% 29.92 in 10.0 mi SSE 24.2 mph 35.7 mph N/A   Clear
12:53 PM 79.0 °F - 57.9 °F 48% 29.94 in 10.0 mi SSE 24.2 mph 33.4 mph N/A   Clear
1:53 PM 77.0 °F - 57.9 °F 52% 29.96 in 10.0 mi SSE 19.6 mph 25.3 mph N/A   Partly Cloudy
2:53 PM 75.9 °F - 59.0 °F 56% 29.96 in 10.0 mi SSE 19.6 mph 25.3 mph N/A   Partly Cloudy
3:53 PM 75.0 °F - 59.0 °F 57% 29.97 in 10.0 mi SSE 15.0 mph - N/A   Overcast
4:53 PM 66.9 °F - 64.0 °F 90% 29.99 in 7.0 mi SE 12.7 mph - N/A Rain Light Rain
5:53 PM 66.0 °F - 64.0 °F 93% 29.99 in 6.0 mi SE 10.4 mph - N/A Rain Light Rain
6:31 PM 64.4 °F - 64.4 °F 100% 30.06 in 4.0 mi South 8.1 mph - 0.05 in Rain Rain
6:53 PM 66.0 °F - 64.0 °F 93% 29.99 in 7.0 mi South 5.8 mph - 0.05 in Rain Light Rain
7:53 PM 64.9 °F - 64.0 °F 97% 29.98 in 10.0 mi West 9.2 mph - 0.01 in   Overcast
8:53 PM 66.0 °F - 63.0 °F 90% 30.01 in 10.0 mi Calm Calm - N/A   Overcast
9:37 PM 64.4 °F - 64.4 °F 100% 30.10 in 10.0 mi ESE 3.5 mph - N/A   Overcast
9:53 PM 66.0 °F - 64.0 °F 93% 30.04 in 10.0 mi Calm Calm - N/A   Overcast
10:53 PM 64.9 °F - 63.0 °F 93% 30.06 in 10.0 mi Calm Calm - N/A   Clear
11:35 PM 64.4 °F - 62.6 °F 94% 30.12 in 6.0 mi Calm Calm - N/A   Partly Cloudy
11:53 PM 63.0 °F - 63.0 °F 100% 30.06 in 4.0 mi Calm Calm - N/A   Partly Cloudy